TimeCDT,TemperatureF,Dew PointF,Humidity,Sea Level PressureIn,VisibilityMPH,Wind Direction,Wind SpeedMPH,Gust SpeedMPH,PrecipitationIn,Events,Conditions,WindDirDegrees,DateUTC
12:15 AM,30.2,30.2,100,30.02,0.8,North,8.1,-,0.01,Snow,Snow,360,2013-04-18 05:15:00
12:35 AM,30.2,30.2,100,30.01,1.0,North,9.2,-,0.02,Snow,Snow,350,2013-04-18 05:35:00
12:55 AM,30.2,28.4,93,30.01,1.8,North,11.5,-,0.03,Snow,Light Snow,360,2013-04-18 05:55:00
1:15 AM,30.2,28.4,93,30.00,4.0,NNW,8.1,-,N/A,Snow,Light Snow,340,2013-04-18 06:15:00
1:35 AM,30.2,28.4,93,29.98,4.0,North,8.1,-,N/A,Snow,Light Snow,350,2013-04-18 06:35:00
1:55 AM,30.2,28.4,93,29.94,7.0,North,11.5,-,N/A,Snow,Light Snow,360,2013-04-18 06:55:00
2:15 AM,30.2,28.4,93,29.92,7.0,North,10.4,-,N/A,Snow,Light Snow,350,2013-04-18 07:15:00
2:35 AM,30.2,28.4,93,29.92,10.0,North,10.4,-,N/A,,Overcast,350,2013-04-18 07:35:00
2:55 AM,30.2,28.4,93,29.94,10.0,North,6.9,-,N/A,,Overcast,350,2013-04-18 07:55:00
3:15 AM,30.2,28.4,93,29.93,10.0,NNW,6.9,-,N/A,,Overcast,340,2013-04-18 08:15:00
3:35 AM,30.2,28.4,93,29.92,10.0,NNW,9.2,-,N/A,,Overcast,330,2013-04-18 08:35:00
3:55 AM,30.2,28.4,93,29.93,10.0,NNW,9.2,-,N/A,,Overcast,330,2013-04-18 08:55:00
4:15 AM,30.2,28.4,93,29.93,10.0,NNW,9.2,-,N/A,,Overcast,330,2013-04-18 09:15:00
4:35 AM,30.2,28.4,93,29.93,10.0,NNW,10.4,-,N/A,,Overcast,330,2013-04-18 09:35:00
4:55 AM,30.2,28.4,93,29.90,10.0,NNW,11.5,-,N/A,,Overcast,340,2013-04-18 09:55:00
5:15 AM,30.2,28.4,93,29.89,10.0,NNW,8.1,-,N/A,,Overcast,340,2013-04-18 10:15:00
5:35 AM,30.2,28.4,93,29.89,10.0,NNW,10.4,16.1,N/A,,Overcast,330,2013-04-18 10:35:00
5:55 AM,30.2,28.4,93,29.88,10.0,NNW,10.4,18.4,N/A,,Overcast,330,2013-04-18 10:55:00
6:15 AM,30.2,28.4,93,29.87,7.0,NNW,10.4,17.3,N/A,,Overcast,330,2013-04-18 11:15:00
6:35 AM,30.2,28.4,93,29.87,7.0,NNW,11.5,17.3,N/A,,Overcast,330,2013-04-18 11:35:00
6:55 AM,30.2,28.4,93,29.85,7.0,NNW,11.5,-,N/A,,Overcast,340,2013-04-18 11:55:00
7:15 AM,30.2,28.4,93,29.85,2.0,NNW,13.8,19.6,N/A,Snow,Light Snow,340,2013-04-18 12:15:00
7:35 AM,30.2,28.4,93,29.85,3.0,NNW,11.5,-,N/A,Snow,Light Snow,340,2013-04-18 12:35:00
7:55 AM,30.2,28.4,93,29.86,3.0,NNW,12.7,-,N/A,Snow,Light Snow,330,2013-04-18 12:55:00
8:15 AM,30.2,28.4,93,29.84,5.0,NNW,13.8,19.6,N/A,,Overcast,340,2013-04-18 13:15:00
8:35 AM,30.2,28.4,93,29.85,10.0,NNW,12.7,18.4,N/A,,Overcast,340,2013-04-18 13:35:00
8:55 AM,30.2,28.4,93,29.83,10.0,NNW,16.1,23.0,N/A,,Overcast,340,2013-04-18 13:55:00
9:15 AM,30.2,28.4,93,29.81,5.0,NNW,12.7,19.6,N/A,,Overcast,340,2013-04-18 14:15:00
9:35 AM,30.2,28.4,93,29.80,4.0,NNW,12.7,21.9,N/A,,Overcast,340,2013-04-18 14:35:00
9:55 AM,30.2,28.4,93,29.78,4.0,NNW,17.3,24.2,N/A,,Overcast,340,2013-04-18 14:55:00
10:15 AM,30.2,28.4,93,29.76,4.0,NNW,18.4,24.2,N/A,,Overcast,340,2013-04-18 15:15:00
10:35 AM,30.2,28.4,93,29.76,7.0,NNW,18.4,-,N/A,,Overcast,340,2013-04-18 15:35:00
10:55 AM,30.2,28.4,93,29.75,7.0,North,15.0,25.3,N/A,,Overcast,350,2013-04-18 15:55:00
11:15 AM,30.2,28.4,93,29.76,5.0,North,13.8,21.9,N/A,,Overcast,350,2013-04-18 16:15:00
11:35 AM,30.2,28.4,93,29.79,3.0,NNW,12.7,-,N/A,,Overcast,340,2013-04-18 16:35:00
11:55 AM,30.2,28.4,93,29.77,1.5,NNW,11.5,-,N/A,Snow,Light Snow,340,2013-04-18 16:55:00
12:15 PM,30.2,28.4,93,29.76,0.8,NNW,11.5,17.3,N/A,Snow,Light Snow,340,2013-04-18 17:15:00
12:55 PM,30.2,30.2,100,29.76,0.2,NNW,11.5,16.1,0.02,Snow,Snow,340,2013-04-18 17:55:00
1:15 PM,32.0,30.2,93,29.75,0.2,NNW,9.2,-,0.02,Snow,Snow,330,2013-04-18 18:15:00
1:35 PM,32.0,30.2,93,29.74,0.5,NNW,13.8,20.7,0.02,Snow,Snow,340,2013-04-18 18:35:00
1:55 PM,32.0,30.2,93,29.72,0.8,NNW,11.5,20.7,0.03,Snow,Light Snow,340,2013-04-18 18:55:00
2:15 PM,32.0,30.2,93,29.73,1.0,NNW,15.0,24.2,N/A,Snow,Light Snow,330,2013-04-18 19:15:00
2:35 PM,32.0,30.2,93,29.73,1.0,NNW,16.1,21.9,N/A,Snow,Light Snow,330,2013-04-18 19:35:00
2:55 PM,32.0,30.2,93,29.71,0.2,NNW,19.6,24.2,N/A,Snow,Snow,330,2013-04-18 19:55:00
3:15 PM,32.0,30.2,93,29.70,0.5,NNW,17.3,21.9,0.01,Snow,Light Snow,330,2013-04-18 20:15:00
3:35 PM,32.0,30.2,93,29.71,0.8,NNW,13.8,18.4,0.01,Snow,Light Snow,330,2013-04-18 20:35:00
3:55 PM,32.0,30.2,93,29.71,0.5,NNW,13.8,24.2,0.01,Snow,Light Snow,340,2013-04-18 20:55:00
4:15 PM,32.0,30.2,93,29.71,0.5,NNW,9.2,-,N/A,Snow,Light Snow,330,2013-04-18 21:15:00
4:35 PM,32.0,30.2,93,29.69,0.5,NNW,16.1,20.7,0.01,Snow,Light Snow,330,2013-04-18 21:35:00
4:55 PM,32.0,30.2,93,29.69,0.5,NNW,15.0,23.0,0.01,Snow,Light Snow,330,2013-04-18 21:55:00
5:15 PM,32.0,30.2,93,29.69,0.8,NNW,16.1,23.0,N/A,Snow,Light Snow,330,2013-04-18 22:15:00
5:35 PM,30.2,30.2,100,29.67,1.0,NNW,15.0,-,N/A,Snow,Light Snow,330,2013-04-18 22:35:00
5:55 PM,30.2,30.2,100,29.68,0.2,NNW,10.4,19.6,N/A,Snow,Snow,330,2013-04-18 22:55:00
6:15 PM,30.2,30.2,100,29.67,0.2,NNW,16.1,21.9,0.01,Snow,Snow,330,2013-04-18 23:15:00
6:35 PM,30.2,30.2,100,29.67,-9999.0,NW,15.0,20.7,0.01,,Overcast,320,2013-04-18 23:35:00
6:55 PM,30.2,30.2,100,29.67,-9999.0,NW,10.4,-,0.01,,Overcast,320,2013-04-18 23:55:00
7:15 PM,30.2,28.4,93,29.67,-9999.0,NW,17.3,27.6,N/A,,Overcast,320,2013-04-19 00:15:00
7:35 PM,30.2,28.4,93,29.67,-9999.0,NW,16.1,24.2,N/A,,Overcast,320,2013-04-19 00:35:00
7:55 PM,30.2,28.4,93,29.68,-9999.0,NW,15.0,25.3,N/A,,Overcast,320,2013-04-19 00:55:00
8:15 PM,30.2,28.4,93,29.68,-9999.0,NW,15.0,26.5,N/A,,Overcast,320,2013-04-19 01:15:00
8:35 PM,30.2,28.4,93,29.68,-9999.0,NW,16.1,23.0,N/A,,Overcast,320,2013-04-19 01:35:00
9:55 PM,30.2,28.4,93,29.70,-9999.0,NW,13.8,20.7,N/A,,Overcast,310,2013-04-19 02:55:00
10:35 PM,30.2,28.4,93,29.68,-9999.0,NW,15.0,-,N/A,,Overcast,310,2013-04-19 03:35:00
10:55 PM,30.2,28.4,93,29.68,-9999.0,NW,15.0,-,N/A,,Overcast,320,2013-04-19 03:55:00
11:15 PM,30.2,28.4,93,29.67,-9999.0,NW,15.0,24.2,N/A,,Overcast,310,2013-04-19 04:15:00
11:35 PM,30.2,28.4,93,29.66,-9999.0,NW,17.3,24.2,N/A,,Overcast,310,2013-04-19 04:35:00
11:55 PM,30.2,28.4,93,29.64,-9999.0,NW,18.4,26.5,N/A,,Overcast,310,2013-04-19 04:55:00